Showing default

IRIDIUM 166, 43570

Orbit data source: Space-Track

IRIDIUM 166, 43570 is a payload satellite owned by Iridium (US) in LEO that was launched on Wed, 25 Jul 2018 UTC via an FALCON 9 launch vehicle from the Air Force Western Test Range (AFWTR). Payload-class satellites include a variety of spacecraft equipped with specific instruments for various scientific and technological missions. These include communications satellites like Starlink; space stations such as the ISS; scientific satellites like the Hubble; Earth observation satellites from companies like Planet Labs, Umbra, and HawkEye 360; GPS; miniature CubeSats for education and research; and military/defense satellites.

Loading next visibility...
Identifier
43570, 2018-061B
Orbit
LEO
Country
Flag of USUS
Related business
Manufacturer
NGIS SSG Gilbert
Mission
Operational Commercial Communications
Bus & Motor
ELITEBUS, Unknown motor
Mass
860 kg wet, 700 kg dry
Launch date (UTC)
2018-07-25 (8 years ago)
Launch vehicle
FALCON 9
Launch site
Air Force Western Test Range (AFWTR)
Object type
Payload
Rocket body
Debris
Shape & HBR
Trap Box + 2 Pan, 4.8 m
Radar Cross Section
10.154 m², Large (>1 m²)

Expand to show TLE details & history
Last TLE update: 7 hours ago

TLE from 7 hours ago
0 IRIDIUM 166
1 43570U 18061B   26256.62197062 -.00000021  00000-0 -14645-4 0  9998
2 43570  86.3998  19.7603 0001950  93.5398 266.6021 14.34216499426077
Epoch: 2026-09-13T14:55Z
TLE epoch observation values (Epoch: 2026-09-13T14:55:38.261Z)
Latitude
-0.00001°
Longitude
163.2369°
Altitude
780.805 km
Speed
7.463 km/s
True Right ascension
01h 19m 02s
True Declination
0° 00' 00"
Sunlit
Object was in full shadow at epoch
Visualization orbit readout
Latitude
Unknown
Longitude
Unknown
Altitude
Unknown
Speed
Unknown
Apparent Right ascension
Unknown
Apparent Declination
Unknown
Sunlit
N/A
Visualization observer readout
Local Sidereal Time
14:21:53
Azimuth
Unknown
Elevation
Unknown
Doppler factor
Unknown
Orbital elements
Apogee altitude
776.031 km
Perigee altitude
773.241 km
Semi-major axis
7,152.773 km
Eccentricity
0.0002
Inclination
86.3998°
RAAN
19.7603°
Arg. of periapsis
93.5398°
True anomaly
266.57979°
Mean anomaly
266.6021°
Eccentric anomaly
266.59095°
Mean motion
3.58783 °/min
Orbital period
100.34 mins
BSTAR
-0.000014645
Loading maneuver chart data...
Computing Atmospheric mass density...
Loading historical data...
Loading historical data...
Loading historical data...
Loading historical data...
Loading historical data...
Loading historical data...
Loading historical data...

Documentation

Showing up to 5 results
|